Weather Roundup
Issued by NWS Chicago, IL

Home | Current Version | Previous Version | Text Only | Print | Product List | Glossary On
Versions: 1 2 3 4 5 6 7 8 9 10 11 12 13 14 15 16 17 18 19 20 21 22 23 24 25 26 27 28 29 30 31 32 33 34 35 36 37 38 39 40 41 42 43 44 45 46 47 48 49 50
000
NZUS59 KLOT 280512
HRRLOT

CHICAGO AREA WEATHER ROUNDUP
NATIONAL WEATHER SERVICE CHICAGO/ROMEOVILLE IL
1200 AM CDT WED SEP 28 2016

NOTE: "FAIR" INDICATES FEW OR NO CLOUDS BELOW 12,000 FEET WITH NO
SIGNIFICANT WEATHER AND/OR OBSTRUCTIONS TO VISIBILITY.

* THESE STATIONS ARE NOT UNDER NWS QUALITY CONTROL. THEY ALSO MAY NOT
  REPORT WEATHER SUCH AS PRECIPITATION OR FOG.

ILZ005-006-012>014-019>023-280600-
NORTHEAST ILLINOIS

CITY           SKY/WX    TMP DP  RH WIND       PRES   REMARKS
OHARE          CLOUDY    54  45  71 NE8       29.78F
MIDWAY         CLOUDY    58  46  64 N12       29.78S
AURORA         CLOUDY    55  47  74 NE7       29.79R
LANSING*       CLOUDY    52  46  78 CALM      29.77S
JOLIET*        PTCLDY    55  47  73 CALM      29.77S
WAUKEGAN       MOCLDY    52  46  80 CALM      29.79F
DUPAGE AIRPORT CLOUDY    54  45  71 NE8       29.78F
WHEELING       PTCLDY    54  45  71 NE5       29.79F
KANKAKEE*      CLOUDY    52  45  79 CALM      29.77F
MORRIS*        CLOUDY    51  46  82 CALM      29.76S
LEWIS AIRPORT* PTCLDY    55  49  81 NE7       29.77S
NORTHERLY ISL    N/A     57  47  69 MISG        N/A
$$

WIZ051-052-058>065-066-070>072-280600-
SOUTHEAST WISCONSIN

CITY           SKY/WX    TMP DP  RH WIND       PRES   REMARKS
MILWAUKEE      LGT RAIN  51  47  86 NW6       29.78F
KENOSHA*       CLOUDY    51  46  83 SW9       29.80S
RACINE*        CLOUDY    51  46  83 W5        29.80F
BURLINGTON     CLOUDY    48  45  87 SW5       29.80R
WAUKESHA       LGT RAIN  46  45  93 W3        29.78F
WEST BEND      LGT RAIN  48  46  93 W5        29.77S
$$

INZ001>003-010>013-019-020-280600-
NORTHWEST INDIANA

CITY           SKY/WX    TMP DP  RH WIND       PRES   REMARKS
GARY*          CLOUDY    54  46  74 S3        29.77F
MICHIGAN CITY* NOT AVBL
RENSSELAER*    NOT AVBL
VALPARAISO     MOCLDY    51  41  68 CALM      29.77F
$$

LMZ740>746-280600-
SOUTHERN LAKE MICHIGAN

STATION/POSITION TIME  SKY/WX   TEMP WIND        PRES    VSBY
                                AIR  DIR/SP/G
                 (UTC)          (F)  (DEG/KT/KT) (MB)    (MI)
HARRISON CRIB    0440            58  350/ 15/ 17   N/A
BURNHAM HARBOR   0500            56  340/ 11/ 14   N/A
CALUMET HARBOR   0448            61  350/  8/ 11 1007.9S
BURNS HARBOR     0440            58  170/  3/  8 1008.5F
MICHIGAN CITY    0440            57   60/  7/  7   N/A
$$

ABBREVIATIONS USED IN REMARKS
   TC - TEMPERATURE IN CELSIUS
  WCI - WIND CHILL INDEX
   HX - HEAT INDEX
  VSB - VISIBILITY
$$




USA.gov is the U.S. government's official web portal to all federal, state and local government web resources and services.